Weather History for Charleston, SC

Change the Weather History Date:

Tuesday, January 29, 2013

  Actual Average Record
Temperature  
Mean Temperature 62 °F 49 °F  
Max Temperature 78 °F 60 °F 79 °F (2002)
Min Temperature 45 °F 38 °F 14 °F (1940)
Degree Days  
Heating Degree Days 3 16  
Month to date heating degree days 301 488  
Since 1 July heating degree days 999 1226  
Cooling Degree Days 0 0  
Month to date cooling degree days 17 0  
Year to date cooling degree days 17 0  
Growing Degree Days 12 (Base 50)    
Moisture  
Dew Point 55 °F    
Average Humidity 77    
Maximum Humidity 100    
Minimum Humidity 54    
Precipitation  
Precipitation 0.00 in 0.12 in 0.77 in (1974)
Month to date precipitation 0.20 3.47  
Year to date precipitation 0.20 3.47  
Snow  
Snow 0.00 in 0.00 in - ()
Month to date snowfall 0.0  
Since 1 July snowfall 0.0 0.3  
Snow Depth 0.00 in    
Sea Level Pressure  
Sea Level Pressure 30.23 in    
Wind  
Wind Speed 5 mph (SSW)    
Max Wind Speed 18 mph    
Max Gust Speed 24 mph    
Visibility 5 miles    
Events Fog    
T = Trace of Precipitation, MM = Missing Value Source: NWS Daily Summary

Daily Weather History Graph

Daily Weather History Graph

Search for Another Location

Airport:

Trip Planner

Search our weather history database for the weather conditions in past years. The results will help you decide how hot, cold, wet, or windy it might be!

Date:

Astronomy

Jan. 29, 2013 Rise Set
Actual Time 7:17 AM EST 5:50 PM EST
Civil Twilight 6:51 AM EST 6:16 PM EST
Nautical Twilight 6:21 AM EST 6:45 PM EST
Astronomical Twilight 5:52 AM EST 7:14 PM EST
Moon 8:32 PM EST (1/29) 8:24 AM EST (1/29)
Length of Visible Light 11h 25m
Length of Day
10h 33m
Waning Gibbous, 94% of the Moon is Illuminated
Jan 29
Waning Gibbous
Feb 3
Last Quarter
Feb 10
New
Feb 17
First Quarter
Feb 25
Full

Hourly Weather History & Observations

Time (EST) Temp. Windchill Dew Point Humidity Pressure Visibility Wind Dir Wind Speed Gust Speed Precip Events Conditions
12:18 AM 51.8 °F - 50.0 °F 94% 30.29 in 0.5 mi Calm Calm - N/A Fog Fog
12:41 AM 48.2 °F - 48.2 °F 100% 30.29 in 2.0 mi Calm Calm - N/A Fog Shallow Fog
12:56 AM 48.9 °F - 48.0 °F 97% 30.29 in 2.0 mi Calm Calm - N/A Fog Shallow Fog
1:56 AM 48.9 °F - 48.0 °F 97% 30.28 in 3.0 mi Calm Calm - N/A Fog Shallow Fog
2:56 AM 46.9 °F - 46.0 °F 97% 30.28 in 4.0 mi North 3.5 mph - N/A   Scattered Clouds
3:05 AM 46.4 °F 44.3 °F 46.4 °F 100% 30.28 in 4.0 mi North 4.6 mph - N/A   Mostly Cloudy
3:19 AM 48.2 °F - 48.2 °F 100% 30.28 in 2.0 mi North 4.6 mph - N/A   Mostly Cloudy
3:31 AM 50.0 °F - 50.0 °F 100% 30.28 in 0.2 mi Calm Calm - N/A Fog Fog
3:40 AM 50.0 °F - 50.0 °F 100% 30.27 in 0.2 mi Calm Calm - N/A Fog Fog
3:56 AM 50.0 °F - 48.9 °F 96% 30.27 in 0.2 mi Calm Calm - N/A Fog Fog
4:56 AM 48.9 °F - 48.9 °F 100% 30.27 in 0.2 mi Calm Calm - N/A Fog Fog
5:28 AM 48.2 °F - 48.2 °F 100% 30.27 in 0.5 mi Calm Calm - N/A Fog Fog
5:56 AM 48.0 °F - 46.9 °F 96% 30.27 in 0.5 mi Calm Calm - N/A Fog Fog
6:56 AM 48.9 °F - 48.0 °F 97% 30.27 in 0.5 mi Calm Calm - N/A Fog Fog
7:56 AM 50.0 °F - 48.9 °F 96% 30.28 in 0.5 mi Calm Calm - N/A Fog Fog
8:45 AM 53.6 °F - 53.6 °F 100% 30.28 in 0.8 mi Calm Calm - N/A   Mostly Cloudy
8:56 AM 53.1 °F - 52.0 °F 96% 30.28 in 0.8 mi Calm Calm - N/A   Overcast
9:50 AM 57.2 °F - 57.2 °F 100% 30.28 in 1.0 mi Calm Calm - N/A   Mostly Cloudy
9:56 AM 57.9 °F - 57.0 °F 97% 30.28 in 3.0 mi Calm Calm - N/A   Scattered Clouds
10:56 AM 71.1 °F - 61.0 °F 70% 30.27 in 10.0 mi WSW 8.1 mph - N/A   Partly Cloudy
11:56 AM 75.0 °F - 62.1 °F 64% 30.24 in 10.0 mi SSW 8.1 mph - N/A   Scattered Clouds
12:56 PM 75.9 °F - 59.0 °F 56% 30.21 in 10.0 mi SW 9.2 mph - N/A   Scattered Clouds
1:56 PM 77.0 °F - 59.0 °F 54% 30.17 in 10.0 mi SSW 12.7 mph 19.6 mph N/A   Scattered Clouds
2:56 PM 75.9 °F - 59.0 °F 56% 30.16 in 10.0 mi SSW 13.8 mph 18.4 mph N/A   Scattered Clouds
3:56 PM 75.0 °F - 60.1 °F 60% 30.16 in 10.0 mi SSW 13.8 mph - N/A   Scattered Clouds
4:56 PM 72.0 °F - 62.1 °F 71% 30.17 in 10.0 mi SSW 11.5 mph - N/A   Mostly Cloudy
5:56 PM 68.0 °F - 62.1 °F 81% 30.16 in 10.0 mi South 8.1 mph - N/A   Mostly Cloudy
6:56 PM 64.9 °F - 62.1 °F 90% 30.16 in 10.0 mi SSE 6.9 mph - N/A   Scattered Clouds
7:56 PM 63.0 °F - 61.0 °F 93% 30.16 in 7.0 mi SSE 5.8 mph - N/A   Scattered Clouds
8:56 PM 61.0 °F - 60.1 °F 97% 30.15 in 6.0 mi SSE 4.6 mph - N/A   Scattered Clouds
9:56 PM 61.0 °F - 60.1 °F 97% 30.14 in 5.0 mi SSE 5.8 mph - N/A   Partly Cloudy
10:56 PM 62.1 °F - 61.0 °F 96% 30.15 in 8.0 mi South 4.6 mph - N/A   Partly Cloudy
11:56 PM 63.0 °F - 61.0 °F 93% 30.13 in 10.0 mi South 8.1 mph - N/A   Partly Cloudy